Weather History for Escanaba, MI

Change the Weather History Date:

Thursday, December 6, 2012

  Actual Average Record
Temperature  
Mean Temperature 37 °F -  
Max Temperature 41 °F 31 °F 55 °F (2011)
Min Temperature 35 °F 17 °F -4 °F (1972)
Degree Days  
Heating Degree Days 28    
Moisture  
Dew Point 32 °F    
Average Humidity 77    
Maximum Humidity 87    
Minimum Humidity 70    
Precipitation  
Precipitation 0.00 in - - ()
Sea Level Pressure  
Sea Level Pressure 29.93 in    
Wind  
Wind Speed 14 mph (SSW)    
Max Wind Speed 22 mph    
Max Gust Speed 32 mph    
Visibility 10 miles    
Events      
Averages and records for this station are not official NWS values.
T = Trace of Precipitation, MM = Missing Value Source: NWS Daily Summary

Daily Weather History Graph

Daily Weather History Graph

Search for Another Location

Airport:

Trip Planner

Search our weather history database for the weather conditions in past years. The results will help you decide how hot, cold, wet, or windy it might be!

Date:

Astronomy

Dec. 06, 2012 Rise Set
Actual Time 8:14 AM EST 5:04 PM EST
Civil Twilight 7:40 AM EST 5:38 PM EST
Nautical Twilight 7:03 AM EST 6:15 PM EST
Astronomical Twilight 6:27 AM EST 6:51 PM EST
Moon 12:09 AM EST (12/6) 12:49 PM EST (12/6)
Length of Visible Light 9h 57m
Length of Day
8h 49m
Waning Gibbous, 49% of the Moon is Illuminated
Dec 6
Waning Gibbous
Dec 13
New
Dec 20
First Quarter
Dec 28
Full
Jan 4
Last Quarter

Hourly Weather History & Observations

Time (EST) Temp. Windchill Dew Point Humidity Pressure Visibility Wind Dir Wind Speed Gust Speed Precip Events Conditions
12:15 AM 35.6 °F 26.6 °F 26.6 °F 70% 30.19 in 10.0 mi SSW 13.8 mph - N/A   Overcast
12:35 AM 35.6 °F 26.2 °F 26.6 °F 70% 30.19 in 10.0 mi SSW 15.0 mph 19.6 mph N/A   Overcast
12:55 AM 35.6 °F 26.2 °F 26.6 °F 70% 30.18 in 10.0 mi South 15.0 mph 19.6 mph N/A   Overcast
1:15 AM 35.6 °F 28.0 °F 26.6 °F 70% 30.18 in 10.0 mi SSW 10.4 mph 18.4 mph N/A   Overcast
1:35 AM 35.6 °F 26.6 °F 26.6 °F 70% 30.17 in 10.0 mi SSW 13.8 mph - N/A   Overcast
1:55 AM 35.6 °F 29.2 °F 26.6 °F 70% 30.17 in 10.0 mi SSW 8.1 mph - N/A   Mostly Cloudy
2:15 AM 35.6 °F 27.5 °F 26.6 °F 70% 30.15 in 10.0 mi SSW 11.5 mph - N/A   Mostly Cloudy
2:35 AM 35.6 °F 26.6 °F 28.4 °F 75% 30.14 in 10.0 mi SSW 13.8 mph 19.6 mph N/A   Overcast
2:55 AM 35.6 °F 25.9 °F 28.4 °F 75% 30.14 in 10.0 mi SSW 16.1 mph 21.9 mph N/A   Overcast
3:15 AM 37.4 °F 28.2 °F 28.4 °F 70% 30.13 in 10.0 mi SSW 16.1 mph 25.3 mph N/A   Overcast
3:35 AM 37.4 °F 28.2 °F 28.4 °F 70% 30.11 in 10.0 mi South 16.1 mph 21.9 mph N/A   Overcast
3:55 AM 37.4 °F 28.2 °F 30.2 °F 75% 30.11 in 10.0 mi South 16.1 mph 21.9 mph N/A   Overcast
4:15 AM 37.4 °F 28.2 °F 30.2 °F 75% 30.09 in 10.0 mi South 16.1 mph 20.7 mph N/A   Overcast
4:35 AM 37.4 °F 29.3 °F 30.2 °F 75% 30.09 in 10.0 mi SSW 12.7 mph 21.9 mph N/A   Overcast
4:55 AM 37.4 °F 28.9 °F 30.2 °F 75% 30.08 in 10.0 mi SSW 13.8 mph 21.9 mph N/A   Overcast
5:15 AM 37.4 °F 29.8 °F 30.2 °F 75% 30.07 in 10.0 mi SSW 11.5 mph 23.0 mph N/A   Overcast
5:35 AM 39.2 °F 32.0 °F 30.2 °F 70% 30.06 in 10.0 mi South 11.5 mph 21.9 mph N/A   Overcast
5:55 AM 39.2 °F 30.5 °F 30.2 °F 70% 30.04 in 10.0 mi South 16.1 mph 23.0 mph N/A   Overcast
6:15 AM 39.2 °F 30.2 °F 32.0 °F 75% 30.02 in 10.0 mi South 17.3 mph 23.0 mph N/A   Overcast
6:35 AM 39.2 °F 29.8 °F 32.0 °F 75% 30.02 in 10.0 mi South 18.4 mph 26.5 mph N/A   Overcast
6:55 AM 39.2 °F 30.5 °F 33.8 °F 81% 30.02 in 10.0 mi South 16.1 mph 21.9 mph N/A   Overcast
7:15 AM 39.2 °F 30.5 °F 33.8 °F 81% 30.01 in 10.0 mi South 16.1 mph 25.3 mph N/A   Overcast
7:35 AM 39.2 °F 30.2 °F 33.8 °F 81% 30.00 in 10.0 mi South 17.3 mph 23.0 mph N/A   Overcast
7:55 AM 39.2 °F 30.8 °F 33.8 °F 81% 30.00 in 7.0 mi South 15.0 mph 23.0 mph N/A   Overcast
8:15 AM 39.2 °F 30.8 °F 33.8 °F 81% 29.99 in 10.0 mi South 15.0 mph 25.3 mph N/A   Overcast
8:35 AM 39.2 °F 30.2 °F 33.8 °F 81% 29.98 in 10.0 mi South 17.3 mph 20.7 mph N/A   Overcast
8:55 AM 39.2 °F 29.8 °F 33.8 °F 81% 29.97 in 10.0 mi South 18.4 mph 25.3 mph N/A   Mostly Cloudy
9:15 AM 39.2 °F 30.2 °F 33.8 °F 81% 29.95 in 8.0 mi South 17.3 mph 32.2 mph N/A   Overcast
9:35 AM 39.2 °F 30.2 °F 33.8 °F 81% 29.93 in 7.0 mi South 17.3 mph 26.5 mph N/A   Overcast
9:55 AM 39.2 °F 29.0 °F 33.8 °F 81% 29.91 in 9.0 mi South 21.9 mph 29.9 mph N/A   Overcast
10:15 AM 39.2 °F 30.8 °F 33.8 °F 81% 29.92 in 9.0 mi South 15.0 mph 27.6 mph N/A   Overcast
10:35 AM 39.2 °F 30.2 °F 33.8 °F 81% 29.92 in 7.0 mi South 17.3 mph 28.8 mph N/A   Overcast
10:55 AM 39.2 °F 29.8 °F 33.8 °F 81% 29.90 in 7.0 mi South 18.4 mph 32.2 mph N/A   Overcast
11:15 AM 39.2 °F 30.5 °F 35.6 °F 87% 29.90 in 10.0 mi South 16.1 mph 27.6 mph N/A   Overcast
11:35 AM 39.2 °F 30.8 °F 35.6 °F 87% 29.90 in 10.0 mi South 15.0 mph 21.9 mph N/A   Overcast
11:55 AM 39.2 °F 30.5 °F 35.6 °F 87% 29.90 in 10.0 mi SSW 16.1 mph 21.9 mph N/A   Overcast
12:15 PM 39.2 °F 29.6 °F 35.6 °F 87% 29.88 in 10.0 mi SSW 19.6 mph 26.5 mph N/A   Overcast
12:35 PM 39.2 °F 29.6 °F 35.6 °F 87% 29.86 in 8.0 mi SSW 19.6 mph 26.5 mph N/A   Overcast
12:55 PM 39.2 °F 29.8 °F 35.6 °F 87% 29.84 in 7.0 mi SSW 18.4 mph 25.3 mph N/A   Overcast
1:15 PM 39.2 °F 30.5 °F 35.6 °F 87% 29.83 in 10.0 mi SSW 16.1 mph 28.8 mph N/A   Overcast
1:35 PM 39.2 °F 29.8 °F 35.6 °F 87% 29.83 in 9.0 mi SSW 18.4 mph 24.2 mph N/A   Overcast
1:55 PM 39.2 °F 30.5 °F 33.8 °F 81% 29.82 in 10.0 mi SSW 16.1 mph 24.2 mph N/A   Overcast
2:15 PM 39.2 °F 31.2 °F 32.0 °F 75% 29.81 in 10.0 mi SW 13.8 mph 23.0 mph N/A   Overcast
2:35 PM 39.2 °F 30.5 °F 32.0 °F 75% 29.81 in 10.0 mi SSW 16.1 mph 20.7 mph N/A   Overcast
2:55 PM 39.2 °F 32.0 °F 32.0 °F 75% 29.80 in 10.0 mi SSW 11.5 mph 24.2 mph N/A   Overcast
3:15 PM 39.2 °F 31.2 °F 30.2 °F 70% 29.80 in 10.0 mi SSW 13.8 mph 19.6 mph N/A   Overcast
3:35 PM 39.2 °F 31.6 °F 30.2 °F 70% 29.80 in 10.0 mi SSW 12.7 mph 17.3 mph N/A   Overcast
3:55 PM 39.2 °F 31.6 °F 30.2 °F 70% 29.80 in 10.0 mi SSW 12.7 mph 18.4 mph N/A   Overcast
4:15 PM 39.2 °F 32.0 °F 30.2 °F 70% 29.80 in 10.0 mi SSW 11.5 mph 16.1 mph N/A   Overcast
4:35 PM 39.2 °F 31.6 °F 32.0 °F 75% 29.80 in 10.0 mi SSW 12.7 mph 19.6 mph N/A   Overcast
4:55 PM 39.2 °F 31.2 °F 32.0 °F 75% 29.79 in 10.0 mi SSW 13.8 mph 19.6 mph N/A   Overcast
5:15 PM 39.2 °F 32.0 °F 33.8 °F 81% 29.79 in 10.0 mi SSW 11.5 mph 17.3 mph N/A   Overcast
5:35 PM 39.2 °F 31.2 °F 33.8 °F 81% 29.79 in 10.0 mi SSW 13.8 mph 19.6 mph N/A   Overcast
5:55 PM 39.2 °F 32.5 °F 33.8 °F 81% 29.80 in 10.0 mi SSW 10.4 mph 17.3 mph N/A   Overcast
6:15 PM 39.2 °F 31.6 °F 32.0 °F 75% 29.80 in 10.0 mi SSW 12.7 mph 21.9 mph N/A   Overcast
6:35 PM 39.2 °F 32.0 °F 32.0 °F 75% 29.80 in 10.0 mi SSW 11.5 mph - N/A   Overcast
6:55 PM 39.2 °F 33.6 °F 32.0 °F 75% 29.80 in 10.0 mi SSW 8.1 mph - N/A   Overcast
7:15 PM 39.2 °F 35.0 °F 32.0 °F 75% 29.81 in 10.0 mi SSW 5.8 mph - N/A   Overcast
7:35 PM 39.2 °F 33.6 °F 32.0 °F 75% 29.80 in 10.0 mi SSW 8.1 mph - N/A   Overcast
7:55 PM 39.2 °F 33.6 °F 30.2 °F 70% 29.80 in 10.0 mi SSW 8.1 mph - N/A   Overcast
8:15 PM 39.2 °F 34.2 °F 30.2 °F 70% 29.81 in 10.0 mi SSW 6.9 mph - N/A   Overcast
8:35 PM 39.2 °F 34.2 °F 32.0 °F 75% 29.81 in 10.0 mi SSW 6.9 mph - N/A   Overcast
8:55 PM 39.2 °F 32.5 °F 32.0 °F 75% 29.80 in 10.0 mi SSW 10.4 mph - N/A   Overcast
9:35 PM 39.2 °F 33.6 °F 32.0 °F 75% 29.81 in 10.0 mi WSW 8.1 mph - N/A   Overcast
9:55 PM 39.2 °F 33.6 °F 30.2 °F 70% 29.81 in 10.0 mi WSW 8.1 mph - N/A   Overcast
10:15 PM 39.2 °F 33.0 °F 32.0 °F 75% 29.82 in 10.0 mi WSW 9.2 mph - N/A   Overcast
10:35 PM 39.2 °F 34.2 °F 32.0 °F 75% 29.82 in 10.0 mi West 6.9 mph - N/A   Overcast
10:55 PM 39.2 °F 35.9 °F 32.0 °F 75% 29.83 in 10.0 mi West 4.6 mph - N/A   Overcast
11:15 PM 37.4 °F 32.8 °F 32.0 °F 81% 29.84 in 10.0 mi West 5.8 mph - N/A   Overcast
11:35 PM 37.4 °F 34.9 °F 30.2 °F 75% 29.83 in 10.0 mi WSW 3.5 mph - N/A   Overcast
11:55 PM 37.4 °F 33.8 °F 30.2 °F 75% 29.84 in 10.0 mi West 4.6 mph - N/A   Overcast